Vitoria, Spain

4:09 PM CET on March 23, 2017 (GMT +0100)
Vitoria

Weather History for LEVT - January, 2014

Change the Weather History Date:

Thursday, January 30, 2014

  Actual Average Record
Temperature  
Mean Temperature 39 °F -  
Max Temperature 46 °F 50 °F 73 °F (2005)
Min Temperature 32 °F 32 °F 26 °F (2007)
Degree Days  
Heating Degree Days 26    
Moisture  
Dew Point 35 °F    
Average Humidity 92    
Maximum Humidity 100    
Minimum Humidity 67    
Precipitation  
Precipitation 0.28 in - - ()
Sea Level Pressure  
Sea Level Pressure 29.73 in    
Wind  
Wind Speed 4 mph ()    
Max Wind Speed 12 mph    
Max Gust Speed -    
Visibility 5.9 miles    
Events Rain , Snow    
Averages and records for this station are not official NWS values.
T = Trace of Precipitation, MM = Missing Value Source: Averaged Metar Reports

Daily Weather History Graph

Daily Weather History Graph

Search for Another Location

Airport or City:

Trip Planner

Search our weather history database for the weather conditions in past years. The results will help you decide how hot, cold, wet, or windy it might be!

Date:

Astronomy

Jan. 30, 2014 Rise Set
Actual Time 8:27 AM CET 6:20 PM CET
Civil Twilight 7:57 AM CET 6:51 PM CET
Nautical Twilight 7:23 AM CET 7:25 PM CET
Astronomical Twilight 6:50 AM CET 7:58 PM CET
Moon 7:41 AM CET (1/30) 6:16 PM CET (1/30)
Length of Visible Light 10h 53m
Length of Day
9h 53m
Waning Crescent, 0% of the Moon is Illuminated
Jan 30
Waning Crescent
Jan 30
New
Feb 6
First Quarter
Feb 15
Full
Feb 22
Last Quarter

Hourly Weather History & Observations

Time (CET) Temp. Windchill Dew Point Humidity Pressure Visibility Wind Dir Wind Speed Gust Speed Precip Events Conditions
12:00 AM 35.6 °F 32.8 °F 33.8 °F 93% 29.65 in 6.2 mi West 3.5 mph - N/A Rain Light Rain
12:10 AM 35.6 °F 29.9 °F 33.8 °F 93% 29.65 in 6.2 mi West 6.9 mph - N/A Rain , Snow Snow Showers
12:30 AM 33.8 °F - 32.0 °F 93% 29.65 in 6.2 mi Variable 2.3 mph - N/A Rain Light Rain
1:00 AM 35.6 °F 31.7 °F 33.8 °F 93% 29.65 in 6.2 mi WSW 4.6 mph - N/A   Mostly Cloudy
1:30 AM 35.6 °F - 33.8 °F 93% 29.65 in 6.2 mi Variable 2.3 mph - N/A Rain Light Rain
2:00 AM 33.8 °F - 33.8 °F 100% 29.65 in 6.2 mi Calm Calm - N/A Rain Light Rain
2:30 AM 35.6 °F 29.9 °F 33.8 °F 93% 29.65 in 6.2 mi WSW 6.9 mph - N/A   Scattered Clouds
3:00 AM 35.6 °F - 33.8 °F 93% 29.68 in 6.2 mi Variable 2.3 mph - N/A Rain Light Rain
3:30 AM 35.6 °F - 33.8 °F 93% 29.68 in 6.2 mi Variable 2.3 mph - N/A   Scattered Clouds
4:00 AM 35.6 °F 28.6 °F 33.8 °F 93% 29.68 in 6.2 mi WSW 9.2 mph - N/A Rain Light Rain
4:30 AM 35.6 °F 29.9 °F 33.8 °F 93% 29.68 in 6.2 mi SW 6.9 mph - N/A Rain Light Rain
5:00 AM 35.6 °F 30.7 °F 33.8 °F 93% 29.71 in 6.2 mi SSW 5.8 mph - N/A Rain Light Rain
5:30 AM 33.8 °F - 33.8 °F 100% 29.71 in 3.1 mi Variable 1.2 mph - N/A Rain , Snow Rain Showers
6:00 AM 33.8 °F - 33.8 °F 100% 29.71 in 6.2 mi SSW 1.2 mph - N/A Rain Light Rain
6:30 AM 33.8 °F - 33.8 °F 100% 29.71 in 6.2 mi North 2.3 mph - N/A Rain Light Rain
7:00 AM 33 °F - 33 °F 99% 29.78 in 6 mi Calm Calm - - Rain Light Rain
7:00 AM 33.8 °F - 33.8 °F 100% 29.71 in 6.2 mi Variable 1.2 mph - N/A Rain Light Rain
7:30 AM 32.0 °F - 32.0 °F 100% 29.71 in 0.9 mi North 2.3 mph - N/A Snow Snow Showers
7:40 AM 32.0 °F - 32.0 °F 100% 29.71 in 6.2 mi Calm Calm - N/A Rain Light Rain
8:00 AM 32.0 °F - 32.0 °F 100% 29.74 in 1.9 mi Calm Calm - N/A Snow Snow
8:30 AM 32.0 °F 28.7 °F 32.0 °F 100% 29.74 in 3.7 mi SSW 3.5 mph - N/A Rain Light Rain
9:00 AM 32.0 °F - 32.0 °F 100% 29.74 in 5.0 mi Calm Calm - N/A Rain Light Rain
9:30 AM 33.8 °F - 33.8 °F 100% 29.74 in 5.0 mi Calm Calm - N/A Rain Light Rain
10:00 AM 35 °F - 35 °F 97% 29.83 in 6 mi SSW 3.5 mph - - Rain Light Rain
10:00 AM 33.8 °F - 33.8 °F 100% 29.74 in 6.2 mi Variable 1.2 mph - N/A   Scattered Clouds
10:30 AM 35.6 °F 28.6 °F 35.6 °F 100% 29.74 in 5.6 mi SW 9.2 mph - N/A Rain Light Rain Showers
11:00 AM 37.4 °F 30.8 °F 35.6 °F 93% 29.77 in 6.2 mi SW 9.2 mph - N/A Rain Light Rain
11:30 AM 37.4 °F 33.8 °F 35.6 °F 93% 29.77 in 5.0 mi SSW 4.6 mph - N/A Rain Rain
12:00 PM 39.2 °F 37.0 °F 37.4 °F 93% 29.77 in 6.2 mi WSW 3.5 mph - N/A Rain Light Rain
12:30 PM 39.2 °F 35.0 °F 37.4 °F 93% 29.77 in 6.2 mi West 5.8 mph - N/A Rain Light Rain
1:00 PM 41 °F - 38 °F 85% 29.82 in 6 mi West 8.1 mph - - Rain Light Rain
1:00 PM 39.2 °F 33.6 °F 35.6 °F 87% 29.77 in 6.2 mi West 8.1 mph - N/A Rain Light Rain
1:30 PM 41.0 °F 35.8 °F 37.4 °F 87% 29.77 in 6.2 mi West 8.1 mph - N/A   Mostly Cloudy
2:00 PM 41.0 °F 36.4 °F 37.4 °F 87% 29.74 in 6.2 mi West 6.9 mph - N/A   Scattered Clouds
2:30 PM 41.0 °F 35.2 °F 37.4 °F 87% 29.74 in 6.2 mi WNW 9.2 mph - N/A   Scattered Clouds
3:00 PM 41.0 °F 36.4 °F 37.4 °F 87% 29.74 in 6.2 mi NW 6.9 mph - N/A   Scattered Clouds
3:30 PM 42.8 °F 37.5 °F 37.4 °F 81% 29.74 in 6.2 mi West 9.2 mph - N/A   Mostly Cloudy
4:00 PM 46 °F - 39 °F 67% 29.77 in 12 mi West 9.2 mph - -   Partly Cloudy
4:00 PM 44.6 °F 40.2 °F 37.4 °F 76% 29.74 in 6.2 mi West 8.1 mph - N/A   Mostly Cloudy
4:30 PM 42.8 °F 38.0 °F 35.6 °F 76% 29.74 in 6.2 mi WNW 8.1 mph - N/A   Mostly Cloudy
5:00 PM 42.8 °F 39.3 °F 35.6 °F 76% 29.74 in 6.2 mi West 5.8 mph - N/A   Mostly Cloudy
5:30 PM 41.0 °F 39.0 °F 35.6 °F 81% 29.74 in 6.2 mi WNW 3.5 mph - N/A   Mostly Cloudy
6:00 PM 41.0 °F 37.1 °F 35.6 °F 81% 29.77 in 6.2 mi West 5.8 mph - N/A   Mostly Cloudy
6:30 PM 39.2 °F 32.5 °F 35.6 °F 87% 29.77 in 5.6 mi West 10.4 mph - N/A Rain Light Rain
7:00 PM 39 °F - 36 °F 87% 29.84 in 6 mi SW 3.5 mph - - Rain Light Rain
7:00 PM 39.2 °F 37.0 °F 37.4 °F 93% 29.77 in 6.2 mi SW 3.5 mph - N/A Rain Light Rain
7:30 PM 39.2 °F 37.0 °F 37.4 °F 93% 29.77 in 6.2 mi WSW 3.5 mph - N/A Rain Light Rain
8:00 PM 39.2 °F 37.0 °F 35.6 °F 87% 29.77 in 6.2 mi WSW 3.5 mph - N/A Rain Light Rain
8:30 PM 39.2 °F 34.2 °F 37.4 °F 93% 29.77 in 6.2 mi SW 6.9 mph - N/A Rain Light Rain
9:00 PM 37.4 °F 34.9 °F 35.6 °F 93% 29.74 in 6.2 mi South 3.5 mph - N/A Rain Light Rain
9:30 PM 37.4 °F 34.9 °F 35.6 °F 93% 29.74 in 6.2 mi SSW 3.5 mph - N/A Rain Light Rain
10:00 PM 37.4 °F 32.1 °F 37.4 °F 100% 29.74 in 6.2 mi SSW 6.9 mph - N/A Rain Light Rain
10:30 PM 37.4 °F 32.8 °F 37.4 °F 100% 29.74 in 5.0 mi West 5.8 mph - N/A Rain Rain
11:00 PM 37.4 °F 29.8 °F 37.4 °F 100% 29.74 in 5.0 mi SW 11.5 mph - N/A Rain Rain
11:30 PM 37.4 °F 32.1 °F 37.4 °F 100% 29.74 in 6.2 mi SSW 6.9 mph - N/A Rain Light Rain